OneWeb SL0359

operational
NORAD ID: 49285 Int'l Des: 2021-090 Owner: ONEWEBN Country: UK Constellation: oneweb
LEOCIRCULARPOLARONEWEB_TYPE

About OneWeb SL0359

Description loading...

Live Position

Loading 3D Globe...

Upcoming Passes

Altitude History

Altitude vs Time

uPlot chart will show altitude changes over time

Two-Line Element Set

1 49285U 21090G 25304.77053628 .00000143 00000-0 32064-3 0 9998
2 49285 87.9188 319.9915 0001928 81.2404 278.8948 13.20769407200385
Epoch: Oct 31, 2025 • Age: 22 hours

Current Status

Altitude 1193.2 km
Velocity 7.26 km/s
Sub-Earth Point 73.61°N, 161.19°W
Launch Date Oct 14, 2021
Age 4 years
Type internet

Technical Details

Classification Payload
Mass 148.00 kg
Dry Mass 140.00 kg
Total Mass 148.00 kg
Length 1.30 m
Diameter 1.00 m
Span 5.00 m
Shape Trapezoid+2 pan
Manufacturer ONEWUS
Bus Type ARROW
Phase Status In Orbit
Owner/State ONEWEBN/UK

Large Constellations

Loading constellations...